TimeCST,TemperatureF,Dew PointF,Humidity,Sea Level PressureIn,VisibilityMPH,Wind Direction,Wind SpeedMPH,Gust SpeedMPH,PrecipitationIn,Events,Conditions,WindDirDegrees,DateUTC
12:15 AM,35.6,26.6,70,30.29,10.0,ESE,3.5,-,N/A,,Clear,120,2012-11-15 06:15:00
12:35 AM,35.6,24.8,65,30.29,10.0,SE,4.6,-,N/A,,Clear,130,2012-11-15 06:35:00
1:15 AM,35.6,26.6,70,30.28,10.0,ESE,3.5,-,N/A,,Clear,120,2012-11-15 07:15:00
2:15 AM,33.8,24.8,70,30.28,10.0,Calm,Calm,-,N/A,,Clear,0,2012-11-15 08:15:00
3:15 AM,33.8,24.8,70,30.29,10.0,SE,3.5,-,N/A,,Clear,140,2012-11-15 09:15:00
3:35 AM,30.2,24.8,80,30.29,10.0,SE,3.5,-,N/A,,Clear,130,2012-11-15 09:35:00
4:15 AM,30.2,24.8,80,30.28,10.0,SE,4.6,-,N/A,,Clear,140,2012-11-15 10:15:00
4:35 AM,32.0,26.6,80,30.28,10.0,SSE,4.6,-,N/A,,Clear,150,2012-11-15 10:35:00
4:55 AM,33.8,26.6,75,30.28,10.0,SSE,4.6,-,N/A,,Clear,150,2012-11-15 10:55:00
5:15 AM,32.0,24.8,75,30.28,10.0,SE,3.5,-,N/A,,Clear,140,2012-11-15 11:15:00
5:35 AM,32.0,26.6,80,30.29,10.0,Calm,Calm,-,N/A,,Clear,0,2012-11-15 11:35:00
5:55 AM,32.0,24.8,75,30.29,10.0,SE,3.5,-,N/A,,Clear,130,2012-11-15 11:55:00
6:16 AM,32.0,24.8,75,30.28,10.0,SE,3.5,-,N/A,,Clear,130,2012-11-15 12:16:00
6:35 AM,30.2,24.8,80,30.29,10.0,Calm,Calm,-,N/A,,Clear,0,2012-11-15 12:35:00
6:55 AM,32.0,26.6,80,30.29,10.0,Calm,Calm,-,N/A,,Clear,0,2012-11-15 12:55:00
7:35 AM,32.0,24.8,75,30.31,10.0,Calm,Calm,-,N/A,,Clear,0,2012-11-15 13:35:00
7:55 AM,35.6,26.6,70,30.32,10.0,Calm,Calm,-,N/A,,Clear,0,2012-11-15 13:55:00
8:15 AM,37.4,28.4,70,30.32,10.0,Calm,Calm,-,N/A,,Clear,0,2012-11-15 14:15:00
8:36 AM,39.2,30.2,70,30.32,10.0,SSE,4.6,-,N/A,,Clear,150,2012-11-15 14:36:00
9:15 AM,44.6,30.2,57,30.34,10.0,Calm,Calm,-,N/A,,Clear,0,2012-11-15 15:15:00
9:36 AM,46.4,30.2,53,30.34,10.0,Calm,Calm,-,N/A,,Clear,0,2012-11-15 15:36:00
9:55 AM,48.2,28.4,46,30.34,10.0,SSW,5.8,-,N/A,,Clear,200,2012-11-15 15:55:00
10:15 AM,50.0,28.4,43,30.34,10.0,SSW,4.6,-,N/A,,Clear,200,2012-11-15 16:15:00
10:35 AM,51.8,28.4,41,30.34,10.0,SSW,3.5,-,N/A,,Clear,210,2012-11-15 16:35:00
10:55 AM,53.6,30.2,41,30.34,10.0,West,3.5,-,N/A,,Clear,260,2012-11-15 16:55:00
11:15 AM,53.6,28.4,38,30.33,10.0,SSW,4.6,-,N/A,,Clear,210,2012-11-15 17:15:00
11:35 AM,53.6,28.4,38,30.33,10.0,West,4.6,-,N/A,,Clear,280,2012-11-15 17:35:00
12:15 PM,55.4,28.4,36,30.31,10.0,SW,5.8,-,N/A,,Clear,230,2012-11-15 18:15:00
12:35 PM,55.4,28.4,36,30.31,10.0,WSW,3.5,-,N/A,,Clear,250,2012-11-15 18:35:00
1:15 PM,57.2,28.4,33,30.29,10.0,Calm,Calm,-,N/A,,Clear,0,2012-11-15 19:15:00
1:35 PM,57.2,28.4,33,30.29,10.0,Calm,Calm,-,N/A,,Clear,0,2012-11-15 19:35:00
2:15 PM,59.0,30.2,34,30.29,10.0,South,4.6,-,N/A,,Clear,180,2012-11-15 20:15:00
2:35 PM,60.8,30.2,31,30.29,10.0,SSW,3.5,-,N/A,,Clear,210,2012-11-15 20:35:00
3:15 PM,60.8,30.2,31,30.28,10.0,Calm,Calm,-,N/A,,Clear,0,2012-11-15 21:15:00
3:35 PM,60.8,30.2,31,30.28,8.0,SW,3.5,-,N/A,,Clear,230,2012-11-15 21:35:00
3:56 PM,59.0,30.2,34,30.28,10.0,Calm,Calm,-,N/A,,Clear,0,2012-11-15 21:56:00
4:15 PM,59.0,28.4,31,30.28,10.0,Calm,Calm,-,N/A,,Clear,0,2012-11-15 22:15:00
4:35 PM,59.0,30.2,34,30.28,10.0,Calm,Calm,-,N/A,,Clear,0,2012-11-15 22:35:00
5:15 PM,51.8,30.2,44,30.28,10.0,Calm,Calm,-,N/A,,Clear,0,2012-11-15 23:15:00
5:35 PM,50.0,30.2,47,30.28,10.0,Calm,Calm,-,N/A,,Clear,0,2012-11-15 23:35:00
6:15 PM,48.2,30.2,50,30.29,10.0,Calm,Calm,-,N/A,,Clear,0,2012-11-16 00:15:00
7:15 PM,51.8,30.2,44,30.31,10.0,Calm,Calm,-,N/A,,Clear,0,2012-11-16 01:15:00
7:35 PM,44.6,33.8,66,30.32,7.0,Calm,Calm,-,N/A,,Clear,0,2012-11-16 01:35:00
7:56 PM,42.8,30.2,61,30.32,10.0,Calm,Calm,-,N/A,,Clear,0,2012-11-16 01:56:00
8:15 PM,44.6,33.8,66,30.33,10.0,NNE,3.5,-,N/A,,Clear,20,2012-11-16 02:15:00
8:35 PM,42.8,33.8,70,30.33,10.0,Calm,Calm,-,N/A,,Clear,0,2012-11-16 02:35:00
8:56 PM,42.8,33.8,70,30.34,10.0,Calm,Calm,-,N/A,,Clear,0,2012-11-16 02:56:00
9:15 PM,41.0,30.2,65,30.34,10.0,Calm,Calm,-,N/A,,Clear,0,2012-11-16 03:15:00
9:35 PM,42.8,32.0,66,30.33,10.0,Calm,Calm,-,N/A,,Clear,0,2012-11-16 03:35:00
10:15 PM,39.2,33.8,81,30.34,10.0,Calm,Calm,-,N/A,,Clear,0,2012-11-16 04:15:00
10:35 PM,41.0,33.8,76,30.35,10.0,Calm,Calm,-,N/A,,Clear,0,2012-11-16 04:35:00
10:55 PM,41.0,33.8,76,30.35,10.0,Calm,Calm,-,N/A,,Clear,0,2012-11-16 04:55:00
11:16 PM,39.2,32.0,75,30.35,10.0,Calm,Calm,-,N/A,,Clear,0,2012-11-16 05:16:00
11:35 PM,39.2,33.8,81,30.35,10.0,Calm,Calm,-,N/A,,Clear,0,2012-11-16 05:35:00
11:55 PM,39.2,33.8,81,30.36,10.0,Calm,Calm,-,N/A,,Clear,0,2012-11-16 05:55:00